Weather in Breda

Netherlands     51°35′14″N   4°45′46″E
temp.,
°C
wind,
m/s
gust,
m/s
humid.,
%
clouds,
%
prec.,
mm/h
press.,
hPa
HPBL,
m
25 february, thu
thu2501:00+11s410921 0.0 1026237
04:00+11ssw499333 0.0 1025188
07:00+10ssw489457 0.0 1025196
10:00+12sw4780100 0.0 1026314
13:00+15wsw3559100 0.0 1026655
16:00+14wnw2369100 0.0 1026142
19:00+10nw2486100 0.0 1028120
22:00+9nnw3689100 0.0 1030176
26 february, fri
fri2601:00+9nw2485100 0.1 1031173
04:00+8nnw2686100 0.1 1032367
07:00+7nnw248199 0.1 1033110
10:00+8nnw467210 0.0 1035436
13:00+11nnw45515 0.0 10361164
16:00+10nnw56500 0.0 10351235
19:00+6nnw35680 0.0 1037140
22:00+5nnw23770 0.0 103859
27 february, sat
sat2701:00+4nnw12850 0.0 103922
04:00+3nw22860 0.0 103825
07:00+2nnw12880 0.0 103922
10:00+6n12710 0.0 1039206
13:00+10nne23560 0.0 1039758
16:00+11nne34560 0.0 1038945
19:00+7n33780 0.0 103871
22:00+5nne35880 0.0 1039103
28 february, sun
sun2801:00+4ne23930 0.0 103851
04:00+3nne23920 0.0 103755
07:00+2ne23910 0.0 103725
10:00+6ne34780 0.0 1037254
13:00+10ne34690 0.0 1036680
16:00+11ne466916 0.0 1035881
19:00+7ne47819 0.0 1034155
22:00+4ne38890 0.0 1035176
1 march, mon
mon101:00+4ne36940 0.0 1035130
04:00+3ene36940 0.0 1034122
07:00+2ene34930 0.0 103376
10:00+6e46770 0.0 1034280
13:00+10e57620 0.0 1033926
16:00+11e56590 0.0 10311061
19:00+7ene48780 0.0 1031168
22:00+6e488132 0.0 1031203